Location: Abraham Lincoln Continuation High School
(33.9711°N, 117.3662°W)
Time: 09:54:06
(UTC+00:00)

X-37B - Pass Details

Date: 26 January 2021
Orbit: 383 x 391 km, 45.0° (Epoch: 10 February)

Event Time Altitude Azimuth Distance (km) Brightness Sun altitude
Rises 02:43:52 0° 309° (NW) 2,274 5.1 -18.8°
Reaches altitude 10° 02:46:52 10° 340° (NNW) 1,420 3.5 -19.4°
Enters shadow 02:47:31 12° 352° (N) 1,322 3.2 -19.5°
